Year,Month,Day,Hour,Minute,Value (Times are PST for temperature in C)
2012,03,30,00,00,5.30
2012,03,30,00,01,5.30
2012,03,30,00,02,5.30
2012,03,30,00,03,5.30
2012,03,30,00,04,5.30
2012,03,30,00,05,5.40
2012,03,30,00,06,5.40
2012,03,30,00,07,5.40
2012,03,30,00,08,5.50
2012,03,30,00,09,5.50
2012,03,30,00,10,5.50
2012,03,30,00,11,5.50
2012,03,30,00,12,5.50
2012,03,30,00,13,5.50
2012,03,30,00,14,5.50
2012,03,30,00,15,5.50
2012,03,30,00,16,5.50
2012,03,30,00,17,5.50
2012,03,30,00,18,5.50
2012,03,30,00,19,5.50
2012,03,30,00,20,5.50
2012,03,30,00,21,5.50
2012,03,30,00,22,5.50
2012,03,30,00,23,5.50
2012,03,30,00,24,5.50
2012,03,30,00,25,5.50
2012,03,30,00,26,5.50
2012,03,30,00,27,5.50
2012,03,30,00,28,5.50
2012,03,30,00,29,5.50
2012,03,30,00,30,5.50
2012,03,30,00,31,5.50
2012,03,30,00,32,5.50
2012,03,30,00,33,5.50
2012,03,30,00,34,5.50
2012,03,30,00,35,5.50
2012,03,30,00,36,5.50
2012,03,30,00,37,5.50
2012,03,30,00,38,5.50
2012,03,30,00,39,5.50
2012,03,30,00,40,5.50
2012,03,30,00,41,5.50
2012,03,30,00,42,5.50
2012,03,30,00,43,5.50
2012,03,30,00,44,5.50
2012,03,30,00,45,5.50
2012,03,30,00,46,5.50
2012,03,30,00,47,5.50
2012,03,30,00,48,5.50
2012,03,30,00,49,5.50
2012,03,30,00,50,5.50
2012,03,30,00,51,5.50
2012,03,30,00,52,5.50
2012,03,30,00,53,5.50
2012,03,30,00,54,5.50
2012,03,30,00,55,5.50
2012,03,30,00,56,5.50
2012,03,30,00,57,5.50
2012,03,30,00,58,5.50
2012,03,30,00,59,5.40
2012,03,30,01,00,5.40
2012,03,30,01,01,5.40
2012,03,30,01,02,5.40
2012,03,30,01,03,5.40
2012,03,30,01,04,5.40
2012,03,30,01,05,5.40
2012,03,30,01,06,5.40
2012,03,30,01,07,5.30
2012,03,30,01,08,5.30
2012,03,30,01,09,5.30
2012,03,30,01,10,5.30
2012,03,30,01,11,5.30
2012,03,30,01,12,5.30
2012,03,30,01,13,5.30
2012,03,30,01,14,5.30
2012,03,30,01,15,5.30
2012,03,30,01,16,5.30
2012,03,30,01,17,5.30
2012,03,30,01,18,5.30
2012,03,30,01,19,5.30
2012,03,30,01,20,5.30
2012,03,30,01,21,5.30
2012,03,30,01,22,5.30
2012,03,30,01,23,5.30
2012,03,30,01,24,5.30
2012,03,30,01,25,5.30
2012,03,30,01,26,5.30
2012,03,30,01,27,5.30
2012,03,30,01,28,5.30
2012,03,30,01,29,5.30
2012,03,30,01,30,5.30
2012,03,30,01,31,5.30
2012,03,30,01,32,5.30
2012,03,30,01,33,5.30
2012,03,30,01,34,5.30
2012,03,30,01,35,5.30
2012,03,30,01,36,5.30
2012,03,30,01,37,5.30
2012,03,30,01,38,5.20
2012,03,30,01,39,5.20
2012,03,30,01,40,5.20
2012,03,30,01,41,5.20
2012,03,30,01,42,5.20
2012,03,30,01,43,5.20
2012,03,30,01,44,5.20
2012,03,30,01,45,5.20
2012,03,30,01,46,5.20
2012,03,30,01,47,5.20
2012,03,30,01,48,5.20
2012,03,30,01,49,5.20
2012,03,30,01,50,5.20
2012,03,30,01,51,5.20
2012,03,30,01,52,5.20
2012,03,30,01,53,5.20
2012,03,30,01,54,5.20
2012,03,30,01,55,5.20
2012,03,30,01,56,5.20
2012,03,30,01,57,5.20
2012,03,30,01,58,5.20
2012,03,30,01,59,5.20
2012,03,30,02,00,5.20
2012,03,30,02,01,5.20
2012,03,30,02,02,5.20
2012,03,30,02,03,5.20
2012,03,30,02,04,5.20
2012,03,30,02,05,5.20
2012,03,30,02,06,5.20
2012,03,30,02,07,5.20
2012,03,30,02,08,5.20
2012,03,30,02,09,5.20
2012,03,30,02,10,5.20
2012,03,30,02,11,5.20
2012,03,30,02,12,5.20
2012,03,30,02,13,5.20
2012,03,30,02,14,5.20
2012,03,30,02,15,5.20
2012,03,30,02,16,5.20
2012,03,30,02,17,5.20
2012,03,30,02,18,5.20
2012,03,30,02,19,5.20
2012,03,30,02,20,5.20
2012,03,30,02,21,5.20
2012,03,30,02,22,5.20
2012,03,30,02,23,5.20
2012,03,30,02,24,5.20
2012,03,30,02,25,5.20
2012,03,30,02,26,5.20
2012,03,30,02,27,5.20
2012,03,30,02,28,5.20
2012,03,30,02,29,5.20
2012,03,30,02,30,5.20
2012,03,30,02,31,5.20
2012,03,30,02,32,5.20
2012,03,30,02,33,5.20
2012,03,30,02,34,5.20
2012,03,30,02,35,5.20
2012,03,30,02,36,5.20
2012,03,30,02,37,5.30
2012,03,30,02,38,5.30
2012,03,30,02,39,5.30
2012,03,30,02,40,5.30
2012,03,30,02,41,5.30
2012,03,30,02,42,5.30
2012,03,30,02,43,5.30
2012,03,30,02,44,5.30
2012,03,30,02,45,5.30
2012,03,30,02,46,5.30
2012,03,30,02,47,5.30
2012,03,30,02,48,5.30
2012,03,30,02,49,5.30
2012,03,30,02,50,5.30
2012,03,30,02,51,5.30
2012,03,30,02,52,5.30
2012,03,30,02,53,5.30
2012,03,30,02,54,5.30
2012,03,30,02,55,5.30
2012,03,30,02,56,5.30
2012,03,30,02,57,5.40
2012,03,30,02,58,5.40
2012,03,30,02,59,5.40
2012,03,30,03,00,5.40
2012,03,30,03,01,5.40
2012,03,30,03,02,5.40
2012,03,30,03,03,5.40
2012,03,30,03,04,5.40
2012,03,30,03,05,5.40
2012,03,30,03,06,5.40
2012,03,30,03,07,5.40
2012,03,30,03,08,5.40
2012,03,30,03,09,5.40
2012,03,30,03,10,5.40
2012,03,30,03,11,5.40
2012,03,30,03,12,5.40
2012,03,30,03,13,5.50
2012,03,30,03,14,5.50
2012,03,30,03,15,5.50
2012,03,30,03,16,5.50
2012,03,30,03,17,5.50
2012,03,30,03,18,5.50
2012,03,30,03,19,5.50
2012,03,30,03,20,5.50
2012,03,30,03,21,5.50
2012,03,30,03,22,5.50
2012,03,30,03,23,5.50
2012,03,30,03,24,5.60
2012,03,30,03,25,5.60
2012,03,30,03,26,5.60
2012,03,30,03,27,5.60
2012,03,30,03,28,5.60
2012,03,30,03,29,5.60
2012,03,30,03,30,5.50
2012,03,30,03,31,5.50
2012,03,30,03,32,5.50
2012,03,30,03,33,5.50
2012,03,30,03,34,5.50
2012,03,30,03,35,5.50
2012,03,30,03,36,5.50
2012,03,30,03,37,5.50
2012,03,30,03,38,5.50
2012,03,30,03,39,5.50
2012,03,30,03,40,5.50
2012,03,30,03,41,5.50
2012,03,30,03,42,5.50
2012,03,30,03,43,5.50
2012,03,30,03,44,5.50
2012,03,30,03,45,5.50
2012,03,30,03,46,5.50
2012,03,30,03,47,5.50
2012,03,30,03,48,5.50
2012,03,30,03,49,5.50
2012,03,30,03,50,5.50
2012,03,30,03,51,5.50
2012,03,30,03,52,5.50
2012,03,30,03,53,5.50
2012,03,30,03,54,5.50
2012,03,30,03,55,5.50
2012,03,30,03,56,5.50
2012,03,30,03,57,5.50
2012,03,30,03,58,5.50
2012,03,30,03,59,5.50
2012,03,30,04,00,5.50
2012,03,30,04,01,5.50
2012,03,30,04,02,5.50
2012,03,30,04,03,5.50
2012,03,30,04,04,5.50
2012,03,30,04,05,5.50
2012,03,30,04,06,5.50
2012,03,30,04,07,5.50
2012,03,30,04,08,5.50
2012,03,30,04,09,5.40
2012,03,30,04,10,5.40
2012,03,30,04,11,5.40
2012,03,30,04,12,5.40
2012,03,30,04,13,5.40
2012,03,30,04,14,5.40
2012,03,30,04,15,5.40
2012,03,30,04,16,5.40
2012,03,30,04,17,5.40
2012,03,30,04,18,5.40
2012,03,30,04,19,5.30
2012,03,30,04,20,5.30
2012,03,30,04,21,5.30
2012,03,30,04,22,5.30
2012,03,30,04,23,5.30
2012,03,30,04,24,5.30
2012,03,30,04,25,5.30
2012,03,30,04,26,5.30
2012,03,30,04,27,5.30
2012,03,30,04,28,5.30
2012,03,30,04,29,5.30
2012,03,30,04,30,5.30
2012,03,30,04,31,5.30
2012,03,30,04,32,5.30
2012,03,30,04,33,5.30
2012,03,30,04,34,5.30
2012,03,30,04,35,5.30
2012,03,30,04,36,5.30
2012,03,30,04,37,5.30
2012,03,30,04,38,5.30
2012,03,30,04,39,5.30
2012,03,30,04,40,5.30
2012,03,30,04,41,5.30
2012,03,30,04,42,5.30
2012,03,30,04,43,5.30
2012,03,30,04,44,5.30
2012,03,30,04,45,5.30
2012,03,30,04,46,5.30
2012,03,30,04,47,5.30
2012,03,30,04,48,5.20
2012,03,30,04,49,5.20
2012,03,30,04,50,5.20
2012,03,30,04,51,5.20
2012,03,30,04,52,5.20
2012,03,30,04,53,5.20
2012,03,30,04,54,5.20
2012,03,30,04,55,5.20
2012,03,30,04,56,5.20
2012,03,30,04,57,5.20
2012,03,30,04,58,5.20
2012,03,30,04,59,5.20
2012,03,30,05,00,5.20
2012,03,30,05,01,5.20
2012,03,30,05,02,5.20
2012,03,30,05,03,5.20
2012,03,30,05,04,5.20
2012,03,30,05,05,5.20
2012,03,30,05,06,5.20
2012,03,30,05,07,5.20
2012,03,30,05,08,5.20
2012,03,30,05,09,5.20
2012,03,30,05,10,5.20
2012,03,30,05,11,5.20
2012,03,30,05,12,5.20
2012,03,30,05,13,5.20
2012,03,30,05,14,5.20
2012,03,30,05,15,5.20
2012,03,30,05,16,5.20
2012,03,30,05,17,5.20
2012,03,30,05,18,5.20
2012,03,30,05,19,5.20
2012,03,30,05,20,5.20
2012,03,30,05,21,5.20
2012,03,30,05,22,5.20
2012,03,30,05,23,5.20
2012,03,30,05,24,5.20
2012,03,30,05,25,5.20
2012,03,30,05,26,5.20
2012,03,30,05,27,5.20
2012,03,30,05,28,5.20
2012,03,30,05,29,5.20
2012,03,30,05,30,5.10
2012,03,30,05,31,5.10
2012,03,30,05,32,5.10
2012,03,30,05,33,5.10
2012,03,30,05,34,5.10
2012,03,30,05,35,5.10
2012,03,30,05,36,5.10
2012,03,30,05,37,5.10
2012,03,30,05,38,5.10
2012,03,30,05,39,5.10
2012,03,30,05,40,5.10
2012,03,30,05,41,5.10
2012,03,30,05,42,5.10
2012,03,30,05,43,5.10
2012,03,30,05,44,5.10
2012,03,30,05,45,5.10
2012,03,30,05,46,5.10
2012,03,30,05,47,5.10
2012,03,30,05,48,5.10
2012,03,30,05,49,5.10
2012,03,30,05,50,5.10
2012,03,30,05,51,5.10
2012,03,30,05,52,5.10
2012,03,30,05,53,5.00
2012,03,30,05,54,4.90
2012,03,30,05,55,4.90
2012,03,30,05,56,4.90
2012,03,30,05,57,4.90
2012,03,30,05,58,4.90
2012,03,30,05,59,4.90
2012,03,30,06,00,4.90
2012,03,30,06,01,4.90
2012,03,30,06,02,4.80
2012,03,30,06,03,4.80
2012,03,30,06,04,4.80
2012,03,30,06,05,4.80
2012,03,30,06,06,4.80
2012,03,30,06,07,4.80
2012,03,30,06,08,4.80
2012,03,30,06,09,4.80
2012,03,30,06,10,4.80
2012,03,30,06,11,4.70
2012,03,30,06,12,4.70
2012,03,30,06,13,4.70
2012,03,30,06,14,4.70
2012,03,30,06,15,4.70
2012,03,30,06,16,4.70
2012,03,30,06,17,4.70
2012,03,30,06,18,4.70
2012,03,30,06,19,4.70
2012,03,30,06,20,4.70
2012,03,30,06,21,4.70
2012,03,30,06,22,4.70
2012,03,30,06,23,4.70
2012,03,30,06,24,4.70
2012,03,30,06,25,4.70
2012,03,30,06,26,4.70
2012,03,30,06,27,4.70
2012,03,30,06,28,4.70
2012,03,30,06,29,4.70
2012,03,30,06,30,4.60
2012,03,30,06,31,4.60
2012,03,30,06,32,4.60
2012,03,30,06,33,4.60
2012,03,30,06,34,4.60
2012,03,30,06,35,4.60
2012,03,30,06,36,4.60
2012,03,30,06,37,4.60
2012,03,30,06,38,4.60
2012,03,30,06,39,4.60
2012,03,30,06,40,4.60
2012,03,30,06,41,4.60
2012,03,30,06,42,4.60
2012,03,30,06,43,4.60
2012,03,30,06,44,4.60
2012,03,30,06,45,4.60
2012,03,30,06,46,4.60
2012,03,30,06,47,4.60
2012,03,30,06,48,4.60
2012,03,30,06,49,4.60
2012,03,30,06,50,4.60
2012,03,30,06,51,4.60
2012,03,30,06,52,4.60
2012,03,30,06,53,4.60
2012,03,30,06,54,4.60
2012,03,30,06,55,4.60
2012,03,30,06,56,4.60
2012,03,30,06,57,4.60
2012,03,30,06,58,4.60
2012,03,30,06,59,4.60
2012,03,30,07,00,4.60
2012,03,30,07,01,4.60
2012,03,30,07,02,4.60
2012,03,30,07,03,4.60
2012,03,30,07,04,4.60
2012,03,30,07,05,4.60
2012,03,30,07,06,4.60
2012,03,30,07,07,4.60
2012,03,30,07,08,4.60
2012,03,30,07,09,4.60
2012,03,30,07,10,4.60
2012,03,30,07,11,4.60
2012,03,30,07,12,4.60
2012,03,30,07,13,4.60
2012,03,30,07,14,4.60
2012,03,30,07,15,4.60
2012,03,30,07,16,4.60
2012,03,30,07,17,4.70
2012,03,30,07,18,4.70
2012,03,30,07,19,4.70
2012,03,30,07,20,4.70
2012,03,30,07,21,4.70
2012,03,30,07,22,4.70
2012,03,30,07,23,4.70
2012,03,30,07,24,4.70
2012,03,30,07,25,4.70
2012,03,30,07,26,4.70
2012,03,30,07,27,4.70
2012,03,30,07,28,4.70
2012,03,30,07,29,4.70
2012,03,30,07,30,4.60
2012,03,30,07,31,4.60
2012,03,30,07,32,4.60
2012,03,30,07,33,4.60
2012,03,30,07,34,4.60
2012,03,30,07,35,4.60
2012,03,30,07,36,4.60
2012,03,30,07,37,4.60
2012,03,30,07,38,4.60
2012,03,30,07,39,4.60
2012,03,30,07,40,4.60
2012,03,30,07,41,4.60
2012,03,30,07,42,4.60
2012,03,30,07,43,4.60
2012,03,30,07,44,4.60
2012,03,30,07,45,4.60
2012,03,30,07,46,4.70
2012,03,30,07,47,4.70
2012,03,30,07,48,4.70
2012,03,30,07,49,4.70
2012,03,30,07,50,4.70
2012,03,30,07,51,4.70
2012,03,30,07,52,4.70
2012,03,30,07,53,4.70
2012,03,30,07,54,4.70
2012,03,30,07,55,4.70
2012,03,30,07,56,4.70
2012,03,30,07,57,4.70
2012,03,30,07,58,4.70
2012,03,30,07,59,4.70
2012,03,30,08,00,4.70
2012,03,30,08,01,4.70
2012,03,30,08,02,4.70
2012,03,30,08,03,4.70
2012,03,30,08,04,4.70
2012,03,30,08,05,4.70
2012,03,30,08,06,4.70
2012,03,30,08,07,4.70
2012,03,30,08,08,4.70
2012,03,30,08,09,4.70
2012,03,30,08,10,4.70
2012,03,30,08,11,4.70
2012,03,30,08,12,4.70
2012,03,30,08,13,4.70
2012,03,30,08,14,4.70
2012,03,30,08,15,4.70
2012,03,30,08,16,4.70
2012,03,30,08,17,4.70
2012,03,30,08,18,4.80
2012,03,30,08,19,4.80
2012,03,30,08,20,4.80
2012,03,30,08,21,4.80
2012,03,30,08,22,4.80
2012,03,30,08,23,4.80
2012,03,30,08,24,4.80
2012,03,30,08,25,4.80
2012,03,30,08,26,4.70
2012,03,30,08,27,4.70
2012,03,30,08,28,4.70
2012,03,30,08,29,4.70
2012,03,30,08,30,4.70
2012,03,30,08,31,4.70
2012,03,30,08,32,4.70
2012,03,30,08,33,4.80
2012,03,30,08,34,4.90
2012,03,30,08,35,4.90
2012,03,30,08,36,5.00
2012,03,30,08,37,5.10
2012,03,30,08,38,5.10
2012,03,30,08,39,5.30
2012,03,30,08,40,5.30
2012,03,30,08,41,5.40
2012,03,30,08,42,5.50
2012,03,30,08,43,5.60
2012,03,30,08,44,5.60
2012,03,30,08,45,5.70
2012,03,30,08,46,5.70
2012,03,30,08,47,5.80
2012,03,30,08,48,5.80
2012,03,30,08,49,5.80
2012,03,30,08,50,5.90
2012,03,30,08,51,5.90
2012,03,30,08,52,6.00
2012,03,30,08,53,6.10
2012,03,30,08,54,6.20
2012,03,30,08,55,6.30
2012,03,30,08,56,6.40
2012,03,30,08,57,6.60
2012,03,30,08,58,6.70
2012,03,30,08,59,6.80
2012,03,30,09,00,6.90
2012,03,30,09,01,7.00
2012,03,30,09,02,7.00
2012,03,30,09,03,7.10
2012,03,30,09,04,7.10
2012,03,30,09,05,7.20
2012,03,30,09,06,7.30
2012,03,30,09,07,7.40
2012,03,30,09,08,7.50
2012,03,30,09,09,7.50
2012,03,30,09,10,7.50
2012,03,30,09,11,7.50
2012,03,30,09,12,7.50
2012,03,30,09,13,7.50
2012,03,30,09,14,7.50
2012,03,30,09,15,7.40
2012,03,30,09,16,7.30
2012,03,30,09,17,7.20
2012,03,30,09,18,7.10
2012,03,30,09,19,7.00
2012,03,30,09,20,7.00
2012,03,30,09,21,7.00
2012,03,30,09,22,7.00
2012,03,30,09,23,7.00
2012,03,30,09,24,7.00
2012,03,30,09,25,7.10
2012,03,30,09,26,7.10
2012,03,30,09,27,7.20
2012,03,30,09,28,7.20
2012,03,30,09,29,7.20
2012,03,30,09,30,7.30
2012,03,30,09,31,7.30
2012,03,30,09,32,7.30
2012,03,30,09,33,7.40
2012,03,30,09,34,7.40
2012,03,30,09,35,7.40
2012,03,30,09,36,7.50
2012,03,30,09,37,7.50
2012,03,30,09,38,7.60
2012,03,30,09,39,7.70
2012,03,30,09,40,7.70
2012,03,30,09,41,7.80
2012,03,30,09,42,7.80
2012,03,30,09,43,7.80
2012,03,30,09,44,7.80
2012,03,30,09,45,7.70
2012,03,30,09,46,7.60
2012,03,30,09,47,7.60
2012,03,30,09,48,7.60
2012,03,30,09,49,7.50
2012,03,30,09,50,7.50
2012,03,30,09,51,7.50
2012,03,30,09,52,7.60
2012,03,30,09,53,7.60
2012,03,30,09,54,7.50
2012,03,30,09,55,7.50
2012,03,30,09,56,7.40
2012,03,30,09,57,7.40
2012,03,30,09,58,7.40
2012,03,30,09,59,7.50
2012,03,30,10,00,7.50
2012,03,30,10,01,7.50
2012,03,30,10,02,7.50
2012,03,30,10,03,7.50
2012,03,30,10,04,7.60
2012,03,30,10,05,7.70
2012,03,30,10,06,7.80
2012,03,30,10,07,7.80
2012,03,30,10,08,7.80
2012,03,30,10,09,7.80
2012,03,30,10,10,7.90
2012,03,30,10,11,7.90
2012,03,30,10,12,8.00
2012,03,30,10,13,8.00
2012,03,30,10,14,8.10
2012,03,30,10,15,8.20
2012,03,30,10,16,8.30
2012,03,30,10,17,8.40
2012,03,30,10,18,8.50
2012,03,30,10,19,8.60
2012,03,30,10,20,8.70
2012,03,30,10,21,8.70
2012,03,30,10,22,8.80
2012,03,30,10,23,8.80
2012,03,30,10,24,8.70
2012,03,30,10,25,8.70
2012,03,30,10,26,8.80
2012,03,30,10,27,8.80
2012,03,30,10,28,8.60
2012,03,30,10,29,8.50
2012,03,30,10,30,8.40
2012,03,30,10,31,8.30
2012,03,30,10,32,8.30
2012,03,30,10,33,8.30
2012,03,30,10,34,8.50
2012,03,30,10,35,8.60
2012,03,30,10,36,8.60
2012,03,30,10,37,8.70
2012,03,30,10,38,8.80
2012,03,30,10,39,8.90
2012,03,30,10,40,9.00
2012,03,30,10,41,9.00
2012,03,30,10,42,9.10
2012,03,30,10,43,9.20
2012,03,30,10,44,9.20
2012,03,30,10,45,9.20
2012,03,30,10,46,9.30
2012,03,30,10,47,9.40
2012,03,30,10,48,9.30
2012,03,30,10,49,9.20
2012,03,30,10,50,9.20
2012,03,30,10,51,9.20
2012,03,30,10,52,9.20
2012,03,30,10,53,9.20
2012,03,30,10,54,9.30
2012,03,30,10,55,9.30
2012,03,30,10,56,9.30
2012,03,30,10,57,9.30
2012,03,30,10,58,9.40
2012,03,30,10,59,9.40
2012,03,30,11,00,9.50
2012,03,30,11,01,9.40
2012,03,30,11,02,9.50
2012,03,30,11,03,9.50
2012,03,30,11,04,9.50
2012,03,30,11,05,9.40
2012,03,30,11,06,9.30
2012,03,30,11,07,9.30
2012,03,30,11,08,9.30
2012,03,30,11,09,9.40
2012,03,30,11,10,9.40
2012,03,30,11,11,9.40
2012,03,30,11,12,9.60
2012,03,30,11,13,9.70
2012,03,30,11,14,9.80
2012,03,30,11,15,9.90
2012,03,30,11,16,9.90
2012,03,30,11,17,10.10
2012,03,30,11,18,10.00
2012,03,30,11,19,9.90
2012,03,30,11,20,10.10
2012,03,30,11,21,10.10
2012,03,30,11,22,10.10
2012,03,30,11,23,10.10
2012,03,30,11,24,10.10
2012,03,30,11,25,10.10
2012,03,30,11,26,10.10
2012,03,30,11,27,10.20
2012,03,30,11,28,10.30
2012,03,30,11,29,10.40
2012,03,30,11,30,10.40
2012,03,30,11,31,10.50
2012,03,30,11,32,10.60
2012,03,30,11,33,10.60
2012,03,30,11,34,10.70
2012,03,30,11,35,10.70
2012,03,30,11,36,10.80
2012,03,30,11,37,10.80
2012,03,30,11,38,10.80
2012,03,30,11,39,10.90
2012,03,30,11,40,11.00
2012,03,30,11,41,11.20
2012,03,30,11,42,11.30
2012,03,30,11,43,11.50
2012,03,30,11,44,11.80
2012,03,30,11,45,12.00
2012,03,30,11,46,12.10
2012,03,30,11,47,12.30
2012,03,30,11,48,12.40
2012,03,30,11,49,12.50
2012,03,30,11,50,12.60
2012,03,30,11,51,12.60
2012,03,30,11,52,12.50
2012,03,30,11,53,12.40
2012,03,30,11,54,12.30
2012,03,30,11,55,12.00
2012,03,30,11,56,11.80
2012,03,30,11,57,11.60
2012,03,30,11,58,11.50
2012,03,30,11,59,11.40
2012,03,30,12,00,11.30
2012,03,30,12,01,11.20
2012,03,30,12,02,11.00
2012,03,30,12,03,10.90
2012,03,30,12,04,10.80
2012,03,30,12,05,10.70
2012,03,30,12,06,10.70
2012,03,30,12,07,10.60
2012,03,30,12,08,10.60
2012,03,30,12,09,10.60
2012,03,30,12,10,10.60
2012,03,30,12,11,10.60
2012,03,30,12,12,10.40
2012,03,30,12,13,10.30
2012,03,30,12,14,10.20
2012,03,30,12,15,10.10
2012,03,30,12,16,9.90
2012,03,30,12,17,9.80
2012,03,30,12,18,9.70
2012,03,30,12,19,9.60
2012,03,30,12,20,9.50
2012,03,30,12,21,9.50
2012,03,30,12,22,9.50
2012,03,30,12,23,9.40
2012,03,30,12,24,9.40
2012,03,30,12,25,9.40
2012,03,30,12,26,9.40
2012,03,30,12,27,9.30
2012,03,30,12,28,9.30
2012,03,30,12,29,9.20
2012,03,30,12,30,9.20
2012,03,30,12,31,9.20
2012,03,30,12,32,9.20
2012,03,30,12,33,9.20
2012,03,30,12,34,9.20
2012,03,30,12,35,9.20
2012,03,30,12,36,9.10
2012,03,30,12,37,9.10
2012,03,30,12,38,9.00
2012,03,30,12,39,9.00
2012,03,30,12,40,9.00
2012,03,30,12,41,9.00
2012,03,30,12,42,8.90
2012,03,30,12,43,8.90
2012,03,30,12,44,8.80
2012,03,30,12,45,8.80
2012,03,30,12,46,8.80
2012,03,30,12,47,8.80
2012,03,30,12,48,8.80
2012,03,30,12,49,8.90
2012,03,30,12,50,8.90
2012,03,30,12,51,8.90
2012,03,30,12,52,9.00
2012,03,30,12,53,9.00
2012,03,30,12,54,9.10
2012,03,30,12,55,9.10
2012,03,30,12,56,9.10
2012,03,30,12,57,9.20
2012,03,30,12,58,9.20
2012,03,30,12,59,9.20
2012,03,30,13,00,9.30
2012,03,30,13,01,9.30
2012,03,30,13,02,9.20
2012,03,30,13,03,9.20
2012,03,30,13,04,9.20
2012,03,30,13,05,9.20
2012,03,30,13,06,9.00
2012,03,30,13,07,9.00
2012,03,30,13,08,8.90
2012,03,30,13,09,8.80
2012,03,30,13,10,8.70
2012,03,30,13,11,8.70
2012,03,30,13,12,8.60
2012,03,30,13,13,8.60
2012,03,30,13,14,8.60
2012,03,30,13,15,8.50
2012,03,30,13,16,8.50
2012,03,30,13,17,8.40
2012,03,30,13,18,8.30
2012,03,30,13,19,8.20
2012,03,30,13,20,8.20
2012,03,30,13,21,8.20
2012,03,30,13,22,8.20
2012,03,30,13,23,8.10
2012,03,30,13,24,8.10
2012,03,30,13,25,8.10
2012,03,30,13,26,8.10
2012,03,30,13,27,8.10
2012,03,30,13,28,8.10
2012,03,30,13,29,8.00
2012,03,30,13,30,7.90
2012,03,30,13,31,7.80
2012,03,30,13,32,7.80
2012,03,30,13,33,7.80
2012,03,30,13,34,7.70
2012,03,30,13,35,7.60
2012,03,30,13,36,7.50
2012,03,30,13,37,7.40
2012,03,30,13,38,7.30
2012,03,30,13,39,7.30
2012,03,30,13,40,7.20
2012,03,30,13,41,7.10
2012,03,30,13,42,7.00
2012,03,30,13,43,7.00
2012,03,30,13,44,6.90
2012,03,30,13,45,6.80
2012,03,30,13,46,6.80
2012,03,30,13,47,6.80
2012,03,30,13,48,6.80
2012,03,30,13,49,6.80
2012,03,30,13,50,6.80
2012,03,30,13,51,6.70
2012,03,30,13,52,6.70
2012,03,30,13,53,6.70
2012,03,30,13,54,6.60
2012,03,30,13,55,6.60
2012,03,30,13,56,6.60
2012,03,30,13,57,6.60
2012,03,30,13,58,6.60
2012,03,30,13,59,6.60
2012,03,30,14,00,6.60
2012,03,30,14,01,6.60
2012,03,30,14,02,6.50
2012,03,30,14,03,6.40
2012,03,30,14,04,6.40
2012,03,30,14,05,6.40
2012,03,30,14,06,6.40
2012,03,30,14,07,6.40
2012,03,30,14,08,6.40
2012,03,30,14,09,6.30
2012,03,30,14,10,6.30
2012,03,30,14,11,6.30
2012,03,30,14,12,6.20
2012,03,30,14,13,6.10
2012,03,30,14,14,5.90
2012,03,30,14,15,5.80
2012,03,30,14,16,5.70
2012,03,30,14,17,5.70
2012,03,30,14,18,5.60
2012,03,30,14,19,5.50
2012,03,30,14,20,5.50
2012,03,30,14,21,5.50
2012,03,30,14,22,5.40
2012,03,30,14,23,5.40
2012,03,30,14,24,5.30
2012,03,30,14,25,5.30
2012,03,30,14,26,5.20
2012,03,30,14,27,5.20
2012,03,30,14,28,5.20
2012,03,30,14,29,5.10
2012,03,30,14,30,5.10
2012,03,30,14,31,5.10
2012,03,30,14,32,5.10
2012,03,30,14,33,5.10
2012,03,30,14,34,5.10
2012,03,30,14,35,5.00
2012,03,30,14,36,4.90
2012,03,30,14,37,4.90
2012,03,30,14,38,4.90
2012,03,30,14,39,4.90
2012,03,30,14,40,4.90
2012,03,30,14,41,4.80
2012,03,30,14,42,4.80
2012,03,30,14,43,4.80
2012,03,30,14,44,4.80
2012,03,30,14,45,4.70
2012,03,30,14,46,4.70
2012,03,30,14,47,4.70
2012,03,30,14,48,4.70
2012,03,30,14,49,4.60
2012,03,30,14,50,4.60
2012,03,30,14,51,4.60
2012,03,30,14,52,4.60
2012,03,30,14,53,4.60
2012,03,30,14,54,4.60
2012,03,30,14,55,4.60
2012,03,30,14,56,4.60
2012,03,30,14,57,4.60
2012,03,30,14,58,4.60
2012,03,30,14,59,4.60
2012,03,30,15,00,4.70
2012,03,30,15,01,4.70
2012,03,30,15,02,4.70
2012,03,30,15,03,4.70
2012,03,30,15,04,4.70
2012,03,30,15,05,4.70
2012,03,30,15,06,4.70
2012,03,30,15,07,4.70
2012,03,30,15,08,4.70
2012,03,30,15,09,4.70
2012,03,30,15,10,4.70
2012,03,30,15,11,4.70
2012,03,30,15,12,4.70
2012,03,30,15,13,4.70
2012,03,30,15,14,4.80
2012,03,30,15,15,4.80
2012,03,30,15,16,4.80
2012,03,30,15,17,4.90
2012,03,30,15,18,4.90
2012,03,30,15,19,4.90
2012,03,30,15,20,4.90
2012,03,30,15,21,4.90
2012,03,30,15,22,4.90
2012,03,30,15,23,5.00
2012,03,30,15,24,5.10
2012,03,30,15,25,5.00
2012,03,30,15,26,4.90
2012,03,30,15,27,4.90
2012,03,30,15,28,4.90
2012,03,30,15,29,4.90
2012,03,30,15,30,4.90
2012,03,30,15,31,5.00
2012,03,30,15,32,5.10
2012,03,30,15,33,5.00
2012,03,30,15,34,5.00
2012,03,30,15,35,5.00
2012,03,30,15,36,4.90
2012,03,30,15,37,4.90
2012,03,30,15,38,4.90
2012,03,30,15,39,4.90
2012,03,30,15,40,5.00
2012,03,30,15,41,5.10
2012,03,30,15,42,5.10
2012,03,30,15,43,5.10
2012,03,30,15,44,5.10
2012,03,30,15,45,5.20
2012,03,30,15,46,5.20
2012,03,30,15,47,5.20
2012,03,30,15,48,5.20
2012,03,30,15,49,5.30
2012,03,30,15,50,5.30
2012,03,30,15,51,5.30
2012,03,30,15,52,5.40
2012,03,30,15,53,5.50
2012,03,30,15,54,5.50
2012,03,30,15,55,5.60
2012,03,30,15,56,5.60
2012,03,30,15,57,5.70
2012,03,30,15,58,5.70
2012,03,30,15,59,5.70
2012,03,30,16,00,5.70
2012,03,30,16,01,5.70
2012,03,30,16,02,5.70
2012,03,30,16,03,5.70
2012,03,30,16,04,5.70
2012,03,30,16,05,5.80
2012,03,30,16,06,5.90
2012,03,30,16,07,6.00
2012,03,30,16,08,6.00
2012,03,30,16,09,6.10
2012,03,30,16,10,6.00
2012,03,30,16,11,6.10
2012,03,30,16,12,6.10
2012,03,30,16,13,6.10
2012,03,30,16,14,6.30
2012,03,30,16,15,6.50
2012,03,30,16,16,6.70
2012,03,30,16,17,6.80
2012,03,30,16,18,6.80
2012,03,30,16,19,6.80
2012,03,30,16,20,6.80
2012,03,30,16,21,6.80
2012,03,30,16,22,6.80
2012,03,30,16,23,6.80
2012,03,30,16,24,6.80
2012,03,30,16,25,6.70
2012,03,30,16,26,6.70
2012,03,30,16,27,6.60
2012,03,30,16,28,6.60
2012,03,30,16,29,6.60
2012,03,30,16,30,6.60
2012,03,30,16,31,6.70
2012,03,30,16,32,6.70
2012,03,30,16,33,6.80
2012,03,30,16,34,6.80
2012,03,30,16,35,6.90
2012,03,30,16,36,7.00
2012,03,30,16,37,7.00
2012,03,30,16,38,7.10
2012,03,30,16,39,7.10
2012,03,30,16,40,7.10
2012,03,30,16,41,7.20
2012,03,30,16,42,7.30
2012,03,30,16,43,7.30
2012,03,30,16,44,7.30
2012,03,30,16,45,7.40
2012,03,30,16,46,7.50
2012,03,30,16,47,7.50
2012,03,30,16,48,7.50
2012,03,30,16,49,7.60
2012,03,30,16,50,7.70
2012,03,30,16,51,7.70
2012,03,30,16,52,7.70
2012,03,30,16,53,7.70
2012,03,30,16,54,7.60
2012,03,30,16,55,7.50
2012,03,30,16,56,7.40
2012,03,30,16,57,7.30
2012,03,30,16,58,7.30
2012,03,30,16,59,7.20
2012,03,30,17,00,7.10
2012,03,30,17,01,7.10
2012,03,30,17,02,7.00
2012,03,30,17,03,7.00
2012,03,30,17,04,7.00
2012,03,30,17,05,6.90
2012,03,30,17,06,6.90
2012,03,30,17,07,6.90
2012,03,30,17,08,6.90
2012,03,30,17,09,6.90
2012,03,30,17,10,7.00
2012,03,30,17,11,7.00
2012,03,30,17,12,7.10
2012,03,30,17,13,7.10
2012,03,30,17,14,7.20
2012,03,30,17,15,7.20
2012,03,30,17,16,7.30
2012,03,30,17,17,7.30
2012,03,30,17,18,7.40
2012,03,30,17,19,7.40
2012,03,30,17,20,7.50
2012,03,30,17,21,7.50
2012,03,30,17,22,7.50
2012,03,30,17,23,7.50
2012,03,30,17,24,7.60
2012,03,30,17,25,7.70
2012,03,30,17,26,7.70
2012,03,30,17,27,7.70
2012,03,30,17,28,7.80
2012,03,30,17,29,7.80
2012,03,30,17,30,7.80
2012,03,30,17,31,7.80
2012,03,30,17,32,7.80
2012,03,30,17,33,7.80
2012,03,30,17,34,7.80
2012,03,30,17,35,7.80
2012,03,30,17,36,7.90
2012,03,30,17,37,7.90
2012,03,30,17,38,7.80
2012,03,30,17,39,7.80
2012,03,30,17,40,7.80
2012,03,30,17,41,7.80
2012,03,30,17,42,7.80
2012,03,30,17,43,7.80
2012,03,30,17,44,7.80
2012,03,30,17,45,7.80
2012,03,30,17,46,7.80
2012,03,30,17,47,7.80
2012,03,30,17,48,7.80
2012,03,30,17,49,7.80
2012,03,30,17,50,7.80
2012,03,30,17,51,7.80
2012,03,30,17,52,7.80
2012,03,30,17,53,7.80
2012,03,30,17,54,7.70
2012,03,30,17,55,7.70
2012,03,30,17,56,7.60
2012,03,30,17,57,7.60
2012,03,30,17,58,7.60
2012,03,30,17,59,7.60
2012,03,30,18,00,7.70
2012,03,30,18,01,7.70
2012,03,30,18,02,7.80
2012,03,30,18,03,7.80
2012,03,30,18,04,7.80